Weather History for KGEV - March, 2013

Change the Weather History Date:

Saturday, March 9, 2013

  Actual Average Record
Temperature  
Mean Temperature 42 °F -  
Max Temperature 57 °F 54 °F 75 °F (1974)
Min Temperature 27 °F 29 °F 12 °F (1966)
Degree Days  
Heating Degree Days 23    
Moisture  
Dew Point 20 °F    
Average Humidity 46    
Maximum Humidity 77    
Minimum Humidity 18    
Precipitation  
Precipitation 0.00 in - - ()
Sea Level Pressure  
Sea Level Pressure 30.25 in    
Wind  
Wind Speed 2 mph (SE)    
Max Wind Speed 8 mph    
Max Gust Speed -    
Visibility 10 miles    
Events      
Averages and records for this station are not official NWS values.
T = Trace of Precipitation, MM = Missing Value Source: NWS Daily Summary

Daily Weather History Graph

Daily Weather History Graph

Search for Another Location

Airport or City:

Trip Planner

Search our weather history database for the weather conditions in past years. The results will help you decide how hot, cold, wet, or windy it might be!

Date:

Astronomy

Mar. 09, 2013 Rise Set
Actual Time 6:44 AM EST 6:27 PM EST
Civil Twilight 6:19 AM EST 6:53 PM EST
Nautical Twilight 5:49 AM EST 7:23 PM EST
Astronomical Twilight 5:19 AM EST 7:53 PM EST
Moon 5:04 AM EST (3/9) 4:30 PM EST (3/9)
Length of Visible Light 12h 34m
Length of Day
11h 43m
Waning Crescent, 5% of the Moon is Illuminated
Mar 9
Waning Crescent
Mar 11
New
Mar 19
First Quarter
Mar 27
Full
Apr 3
Last Quarter

Hourly Weather History & Observations

Time (EST) Temp. Windchill Dew Point Humidity Pressure Visibility Wind Dir Wind Speed Gust Speed Precip Events Conditions
12:15 AM 29.5 °F - 20.1 °F 68% 30.27 in 10.0 mi Calm Calm - N/A   Clear
12:35 AM 29.7 °F 26.1 °F 21.2 °F 71% 30.26 in 10.0 mi North 3.5 mph - N/A   Clear
12:55 AM 28.6 °F - 21.2 °F 74% 30.26 in 10.0 mi Calm Calm - N/A   Clear
1:15 AM 29.7 °F 24.7 °F 21.2 °F 71% 30.25 in 10.0 mi NW 4.6 mph - N/A   Clear
1:35 AM 29.7 °F 22.8 °F 20.3 °F 68% 30.25 in 10.0 mi NNW 6.9 mph - N/A   Clear
2:15 AM 32.0 °F - 19.4 °F 60% 30.25 in 10.0 mi Calm Calm - N/A   Clear
2:35 AM 32.0 °F - 19.0 °F 59% 30.25 in 10.0 mi Calm Calm - N/A   Clear
3:15 AM 30.6 °F - 19.4 °F 63% 30.23 in 10.0 mi Calm Calm - N/A   Clear
3:35 AM 30.4 °F 26.9 °F 19.4 °F 64% 30.23 in 10.0 mi North 3.5 mph - N/A   Clear
4:15 AM 29.3 °F - 19.9 °F 68% 30.23 in 10.0 mi Calm Calm - N/A   Clear
4:35 AM 27.1 °F - 19.9 °F 74% 30.23 in 10.0 mi Calm Calm - N/A   Clear
5:15 AM 27.0 °F - 20.3 °F 76% 30.23 in 10.0 mi Calm Calm - N/A   Clear
5:35 AM 27.5 °F - 20.3 °F 74% 30.23 in 10.0 mi Calm Calm - N/A   Clear
5:55 AM 27.7 °F - 19.9 °F 73% 30.23 in 10.0 mi Calm Calm - N/A   Clear
6:15 AM 27.3 °F - 20.3 °F 75% 30.24 in 10.0 mi Calm Calm - N/A   Clear
6:35 AM 27.3 °F - 19.9 °F 74% 30.24 in 10.0 mi Calm Calm - N/A   Clear
6:55 AM 27.1 °F - 19.9 °F 74% 30.25 in 10.0 mi Calm Calm - N/A   Clear
7:15 AM 27.3 °F - 20.8 °F 77% 30.25 in 10.0 mi Calm Calm - N/A   Clear
7:35 AM 28.6 °F - 20.3 °F 71% 30.26 in 10.0 mi Calm Calm - N/A   Clear
7:55 AM 29.5 °F - 22.5 °F 75% 30.26 in 10.0 mi Calm Calm - N/A   Clear
8:15 AM 30.2 °F - 23.4 °F 76% 30.26 in 10.0 mi Calm Calm - N/A   Clear
8:35 AM 31.8 °F - 23.5 °F 71% 30.27 in 10.0 mi Calm Calm - N/A   Clear
8:55 AM 33.1 °F - 23.2 °F 67% 30.27 in 10.0 mi Calm Calm - N/A   Clear
9:15 AM 35.8 °F - 24.8 °F 64% 30.28 in 10.0 mi Calm Calm - N/A   Clear
9:35 AM 36.7 °F - 25.2 °F 63% 30.29 in 10.0 mi Calm Calm - N/A   Clear
9:55 AM 38.7 °F - 23.7 °F 55% 30.28 in 10.0 mi Calm Calm - N/A   Clear
10:15 AM 40.6 °F 38.6 °F 19.6 °F 43% 30.28 in 10.0 mi ESE 3.5 mph - N/A   Clear
10:35 AM 43.3 °F - 19.0 °F 38% 30.28 in 10.0 mi Calm Calm - N/A   Clear
10:55 AM 45.3 °F 44.0 °F 18.0 °F 34% 30.28 in 10.0 mi East 3.5 mph - N/A   Clear
11:15 AM 46.8 °F - 18.0 °F 32% 30.27 in 10.0 mi East 3.5 mph - N/A   Clear
11:35 AM 48.9 °F - 13.8 °F 25% 30.27 in 10.0 mi Calm Calm - N/A   Clear
11:55 AM 50.9 °F - 16.5 °F 26% 30.27 in 10.0 mi Calm Calm - N/A   Clear
12:15 PM 53.4 °F - 18.7 °F 26% 30.26 in 10.0 mi ENE 3.5 mph - N/A   Clear
12:35 PM 52.9 °F - 17.4 °F 25% 30.26 in 10.0 mi Calm Calm - N/A   Clear
12:55 PM 53.4 °F - 13.6 °F 21% 30.26 in 10.0 mi SE 4.6 mph - N/A   Clear
1:15 PM 55.4 °F - 15.8 °F 21% 30.26 in 10.0 mi Calm Calm - N/A   Clear
1:35 PM 55.0 °F - 12.0 °F 18% 30.25 in 10.0 mi ESE 6.9 mph - N/A   Clear
1:55 PM 55.8 °F - 15.1 °F 20% 30.24 in 10.0 mi SSE 4.6 mph - N/A   Clear
2:15 PM 56.5 °F - 16.9 °F 21% 30.23 in 10.0 mi SSE 5.8 mph - N/A   Clear
2:35 PM 57.0 °F - 19.0 °F 23% 30.23 in 10.0 mi SE 4.6 mph - N/A   Clear
2:55 PM 56.5 °F - 18.9 °F 23% 30.22 in 10.0 mi SE 5.8 mph - N/A   Clear
3:15 PM 55.9 °F - 18.5 °F 23% 30.22 in 10.0 mi SE 4.6 mph - N/A   Clear
3:35 PM 56.3 °F - 18.3 °F 23% 30.22 in 10.0 mi SSE 4.6 mph - N/A   Clear
3:55 PM 55.9 °F - 17.4 °F 22% 30.22 in 10.0 mi ESE 8.1 mph - N/A   Clear
4:15 PM 55.0 °F - 17.8 °F 23% 30.22 in 10.0 mi SE 6.9 mph - N/A   Clear
4:35 PM 55.2 °F - 16.5 °F 22% 30.22 in 10.0 mi SSE 4.6 mph - N/A   Clear
4:55 PM 53.8 °F - 16.3 °F 23% 30.22 in 10.0 mi SE 5.8 mph - N/A   Clear
5:15 PM 53.6 °F - 16.2 °F 23% 30.22 in 10.0 mi SE 4.6 mph - N/A   Clear
5:35 PM 52.9 °F - 15.8 °F 23% 30.22 in 10.0 mi SE 5.8 mph - N/A   Clear
5:55 PM 51.8 °F - 18.0 °F 26% 30.23 in 10.0 mi SE 3.5 mph - N/A   Clear
6:15 PM 50.4 °F - 18.3 °F 28% 30.23 in 10.0 mi SSE 4.6 mph - N/A   Clear
6:35 PM 49.6 °F - 18.3 °F 29% 30.23 in 10.0 mi SSE 4.6 mph - N/A   Clear
6:55 PM 48.7 °F - 18.7 °F 30% 30.24 in 10.0 mi Calm Calm - N/A   Clear
7:15 PM 47.8 °F - 19.4 °F 32% 30.24 in 10.0 mi Calm Calm - N/A   Clear
7:35 PM 46.9 °F - 20.5 °F 35% 30.24 in 10.0 mi SSE 3.5 mph - N/A   Clear
7:55 PM 46.8 °F - 21.7 °F 37% 30.24 in 10.0 mi South 3.5 mph - N/A   Clear
8:15 PM 45.7 °F - 22.5 °F 40% 30.24 in 10.0 mi Calm Calm - N/A   Clear
8:35 PM 45.1 °F 43.7 °F 22.8 °F 41% 30.24 in 10.0 mi SSE 3.5 mph - N/A   Clear
8:55 PM 44.8 °F - 23.0 °F 42% 30.24 in 10.0 mi Calm Calm - N/A   Clear
9:15 PM 43.9 °F 42.3 °F 23.5 °F 45% 30.25 in 10.0 mi South 3.5 mph - N/A   Clear
9:35 PM 43.0 °F - 23.9 °F 47% 30.26 in 10.0 mi Calm Calm - N/A   Clear
10:15 PM 42.8 °F - 23.7 °F 47% 30.26 in 10.0 mi Calm Calm - N/A   Scattered Clouds
10:35 PM 41.9 °F - 23.9 °F 49% 30.26 in 10.0 mi Calm Calm - N/A   Clear
10:55 PM 41.2 °F - 23.7 °F 50% 30.27 in 10.0 mi Calm Calm - N/A   Scattered Clouds
11:15 PM 40.5 °F - 23.5 °F 51% 30.26 in 10.0 mi Calm Calm - N/A   Clear
11:35 PM 42.1 °F - 23.5 °F 48% 30.26 in 10.0 mi Calm Calm - N/A   Scattered Clouds
11:55 PM 41.2 °F - 23.7 °F 50% 30.26 in 10.0 mi Calm Calm - N/A   Overcast